Flag for Brazil Weather past 2 weeks in Belo Horizonte, Minas Gerais, Brazil

Now
73 °F

Partly cloudy.


Feels Like: 73 °F
Forecast: 71 / 83 °F
Wind: 9 mph from Northeast

Location: Belo Horizonte Airport

Current Time: Dec 23, 2014 at 2:09:33 AM

Latest Report: Dec 23, 2014 at 1:00 AM


Visibility: N/A

Pressure: 30.04 "Hg

Humidity: 83%

Dew point: 68 °F

Location of Belo HorizonteLocation

Historic Weather in Belo Horizonte — Graph

°F

Belo Horizonte temperature yesterday

Maximum temperature yesterday: 82 °F (at 3:00 PM)
Minimum temperature yesterday: 68 °F (at 1:00 AM)
Average temperature yesterday: 75 °F

Past Weeks' High & Low Weather Summary

 TemperatureHumidityPressure
High88 °F (Dec 19, 4:00 PM)100% (Dec 17, 6:00 AM)30.15 "Hg (Dec 17, 6:00 AM)
Low61 °F (Dec 17, 6:00 AM)29% (Dec 17, 5:00 PM)29.86 "Hg (Dec 13, 5:00 PM)
Average74 °F68%30.01 "Hg
* Reported Dec 8 1:00 AM — Dec 23 1:00 AM, Belo Horizonte, Weather by CustomWeather, © 2014

Note: Actual official high and low records may vary slightly from our data, if they occured in-between our weather recording intervals... More about our weather records

Advertising

Belo Horizonte weather history for previous 24 hours

 ConditionsComfort  
Time TempWeatherWind HumidityBarometerVisibility
1:00 AM
Dec 23
73 °FPartly cloudy.9 mph83%30.04 "HgN/A
12:00 AM73 °FPartly cloudy.8 mph83%30.07 "HgN/A
11:00 PM
Dec 22
75 °FPartly cloudy.9 mph78%30.07 "HgN/A
10:00 PM75 °FPartly cloudy.9 mph78%30.04 "HgN/A
9:00 PM77 °FPartly cloudy.7 mph74%30.01 "HgN/A
8:00 PM77 °FBroken clouds.8 mph74%29.98 "HgN/A
7:00 PM82 °FBroken clouds.3 mph55%29.95 "HgN/A
6:00 PM82 °FBroken clouds.3 mph55%29.95 "HgN/A
5:00 PM82 °FPartly sunny.7 mph51%29.95 "HgN/A
4:00 PM82 °FPartly sunny.8 mph51%29.98 "HgN/A
3:00 PM82 °FPartly sunny.6 mph58%30.01 "HgN/A
2:00 PM79 °FPartly sunny.7 mph70%30.04 "HgN/A
1:00 PM79 °FBroken clouds.8 mph70%30.07 "HgN/A
12:00 PM77 °FPartly sunny.8 mph74%30.07 "HgN/A
11:00 AM75 °FPartly sunny.5 mph78%30.09 "HgN/A
10:00 AM73 °FPartly sunny.6 mph83%30.09 "Hg6 mi
9:00 AM72 °FFog.3 mph88%30.09 "Hg2 mi
8:00 AM70 °FFog.2 mph94%30.09 "Hg1 mi
7:00 AM68 °FDrizzle. Fog.1 mph94%N/A1 mi
6:00 AM68 °FLight rain. Fog.3 mph94%N/A1 mi
5:00 AM68 °FPassing clouds.3 mph94%30.04 "HgN/A
4:00 AM68 °FPassing clouds.3 mph88%30.04 "HgN/A
3:00 AM68 °FPassing clouds.3 mph94%30.04 "HgN/A
2:00 AM68 °FPassing clouds.2 mph94%30.07 "HgN/A
Weather by CustomWeather, © 2014

See weather overviewHow to use our weather pages